Weather History for Chetek Municipal Southworth A, WI

Change the Weather History Date:

Tuesday, January 28, 2014

  Actual Average (KRPD) Record (KRPD)
Temperature  
Mean Temperature -14 °F -  
Max Temperature -4 °F 22 °F -3 °F (2014)
Min Temperature -24 °F 7 °F -22 °F (2014)
Degree Days  
Heating Degree Days 79    
Moisture  
Dew Point -20 °F    
Average Humidity 68    
Maximum Humidity 79    
Minimum Humidity 55    
Precipitation  
Precipitation 0.00 in - - ()
Sea Level Pressure  
Sea Level Pressure 30.17 in    
Wind  
Wind Speed 4 mph (SW)    
Max Wind Speed 12 mph    
Max Gust Speed 16 mph    
Visibility 10 miles    
Events      
Averages and records for this station are not official NWS values.
T = Trace of Precipitation, MM = Missing Value Source: NWS Daily Summary

Daily Weather History Graph

Daily Weather History Graph

Search for Another Location

Airport:

Trip Planner

Search our weather history database for the weather conditions in past years. The results will help you decide how hot, cold, wet, or windy it might be!

Date:

Astronomy

Jan. 28, 2014 Rise Set
Actual Time 7:31 AM CST 5:08 PM CST
Civil Twilight 6:59 AM CST 5:39 PM CST
Nautical Twilight 6:24 AM CST 6:15 PM CST
Astronomical Twilight 5:49 AM CST 6:50 PM CST
Moon 5:15 AM CST (1/28) 2:56 PM CST (1/28)
Length of Visible Light 10h 40m
Length of Day
9h 36m
Waning Crescent, 7% of the Moon is Illuminated
Jan 28
Waning Crescent
Jan 30
New
Feb 6
First Quarter
Feb 14
Full
Feb 22
Last Quarter

Hourly Weather History & Observations

Time (CST) Temp. Windchill Dew Point Humidity Pressure Visibility Wind Dir Wind Speed Gust Speed Precip Events Conditions
12:15 AM -15.9 °F - -23.1 °F 70% 30.29 in 10.0 mi North - - N/A   Clear
12:35 AM -16.1 °F -30.6 °F -23.4 °F 69% 30.29 in 10.0 mi West 5.8 mph - N/A   Clear
12:55 AM -16.8 °F -27.0 °F -24.0 °F 70% 30.29 in 10.0 mi West 3.5 mph - N/A   Clear
1:15 AM -17.5 °F -32.3 °F -24.0 °F 72% 30.28 in 10.0 mi WSW 5.8 mph - N/A   Clear
1:35 AM -17.9 °F - -24.3 °F 72% 30.28 in 10.0 mi Calm Calm - N/A   Clear
1:55 AM -18.4 °F - -24.2 °F 75% 30.28 in 10.0 mi Calm Calm - N/A   Clear
2:15 AM -19.5 °F - -24.5 °F 78% 30.28 in 10.0 mi Calm Calm - N/A   Clear
2:35 AM -21.3 °F - -26.1 °F 78% 30.28 in 10.0 mi Calm Calm - N/A   Clear
2:55 AM -21.1 °F -32.0 °F -25.8 °F 79% 30.28 in 10.0 mi SW 3.5 mph - N/A   Clear
3:15 AM -21.6 °F - -26.5 °F 78% 30.27 in 10.0 mi Calm Calm - N/A   Clear
3:35 AM -22.0 °F - -26.7 °F 79% 30.26 in 10.0 mi Calm Calm - N/A   Clear
3:55 AM -21.8 °F -35.4 °F -26.7 °F 78% 30.26 in 10.0 mi SW 4.6 mph - N/A   Clear
4:15 AM -21.5 °F -32.4 °F -26.7 °F 77% 30.25 in 10.0 mi SW 3.5 mph - N/A   Clear
4:35 AM -21.3 °F - -26.5 °F 77% 30.25 in 10.0 mi Calm Calm - N/A   Clear
4:55 AM -21.1 °F -32.0 °F -26.5 °F 76% 30.25 in 10.0 mi SSW 3.5 mph - N/A   Clear
5:15 AM -21.1 °F - -26.1 °F 77% 30.25 in 10.0 mi Calm Calm - N/A   Clear
5:35 AM -22.2 °F - -27.4 °F 77% 30.25 in 10.0 mi Calm Calm - N/A   Clear
5:55 AM -22.9 °F - -27.6 °F 79% 30.25 in 10.0 mi Calm Calm - N/A   Clear
6:15 AM -22.9 °F - -27.8 °F 78% 30.25 in 10.0 mi Calm Calm - N/A   Clear
6:35 AM -23.1 °F - -27.9 °F 78% 30.25 in 10.0 mi Calm Calm - N/A   Clear
6:55 AM -23.1 °F - -27.9 °F 78% 30.25 in 10.0 mi Calm Calm - N/A   Clear
7:15 AM -20.6 °F - -26.0 °F 76% 30.25 in 10.0 mi Calm Calm - N/A   Clear
7:35 AM -23.1 °F - -28.5 °F 76% 30.24 in 7.0 mi Calm Calm - N/A   Clear
7:55 AM -23.6 °F - -28.5 °F 78% 30.24 in 10.0 mi Calm Calm - N/A   Clear
8:15 AM -24.2 °F - -28.8 °F 79% 30.25 in 10.0 mi Calm Calm - N/A   Clear
8:35 AM -20.6 °F -31.3 °F -26.1 °F 75% 30.24 in 10.0 mi South 3.5 mph - N/A   Clear
8:55 AM -17.7 °F -28.0 °F -22.7 °F 78% 30.24 in 7.0 mi SSW 3.5 mph - N/A   Clear
9:15 AM -16.2 °F -26.4 °F -21.8 °F 76% 30.24 in 10.0 mi SSW 3.5 mph - N/A   Clear
9:35 AM -14.4 °F - -19.7 °F 77% 30.23 in 10.0 mi Calm Calm - N/A   Clear
9:55 AM -12.5 °F -28.0 °F -18.2 °F 76% 30.24 in 10.0 mi West 6.9 mph - N/A   Clear
10:15 AM -11.6 °F -23.4 °F -17.9 °F 74% 30.24 in 10.0 mi West 4.6 mph - N/A   Clear
10:35 AM -11.4 °F -26.7 °F -18.4 °F 71% 30.23 in 10.0 mi SW 6.9 mph - N/A   Clear
10:55 AM -10.3 °F -26.7 °F -18.4 °F 67% 30.23 in 10.0 mi SW 8.1 mph - N/A   Clear
11:15 AM -9.4 °F -26.8 °F -19.3 °F 62% 30.22 in 10.0 mi WSW 9.2 mph - N/A   Clear
11:35 AM -8.5 °F -17.6 °F -19.3 °F 59% 30.22 in 10.0 mi WSW 3.5 mph - N/A   Clear
11:55 AM -7.8 °F -20.8 °F -18.8 °F 59% 30.20 in 10.0 mi WSW 5.8 mph - N/A   Clear
12:15 PM -7.8 °F -24.8 °F -18.6 °F 59% 30.19 in 10.0 mi WSW 9.2 mph - N/A   Clear
12:35 PM -7.4 °F -23.2 °F -18.4 °F 59% 30.17 in 10.0 mi SW 8.1 mph - N/A   Clear
12:55 PM -7.4 °F -25.4 °F -18.0 °F 60% 30.16 in 10.0 mi SW 10.4 mph - N/A   Clear
1:15 PM -6.7 °F -22.3 °F -17.9 °F 58% 30.15 in 10.0 mi SW 8.1 mph - N/A   Clear
1:35 PM -5.4 °F -20.8 °F -17.0 °F 58% 30.15 in 10.0 mi SW 8.1 mph - N/A   Clear
1:55 PM -4.7 °F -19.9 °F -16.6 °F 57% 30.15 in 10.0 mi West 8.1 mph 16.1 mph N/A   Clear
2:15 PM -4.5 °F -16.9 °F -16.8 °F 56% 30.14 in 10.0 mi SW 5.8 mph 16.1 mph N/A   Clear
2:35 PM -4.5 °F -18.4 °F -16.8 °F 56% 30.14 in 10.0 mi SW 6.9 mph 16.1 mph N/A   Clear
2:55 PM -4.0 °F -17.8 °F -16.6 °F 55% 30.13 in 10.0 mi SW 6.9 mph - N/A   Clear
3:15 PM -4.0 °F -22.1 °F -15.9 °F 57% 30.12 in 10.0 mi SSW 11.5 mph - N/A   Scattered Clouds
3:35 PM -4.4 °F -20.6 °F -15.9 °F 58% 30.12 in 10.0 mi WSW 9.2 mph - N/A   Scattered Clouds
3:55 PM -4.5 °F -20.8 °F -15.9 °F 58% 30.12 in 10.0 mi SW 9.2 mph - N/A   Mostly Cloudy
4:15 PM -4.7 °F -18.6 °F -15.9 °F 59% 30.11 in 10.0 mi SW 6.9 mph - N/A   Overcast
4:35 PM -4.4 °F -15.0 °F -15.7 °F 58% 30.10 in 10.0 mi WSW 4.6 mph - N/A   Mostly Cloudy
4:55 PM -4.4 °F -12.8 °F -15.3 °F 59% 30.11 in 10.0 mi WSW 3.5 mph - N/A   Scattered Clouds
5:15 PM -4.7 °F -19.9 °F -15.7 °F 59% 30.11 in 10.0 mi WSW 8.1 mph - N/A   Clear
5:35 PM -4.9 °F -17.4 °F -15.7 °F 60% 30.11 in 10.0 mi WSW 5.8 mph - N/A   Clear
5:55 PM -5.1 °F -19.1 °F -15.7 °F 60% 30.11 in 10.0 mi SW 6.9 mph - N/A   Clear
6:15 PM -5.6 °F -18.2 °F -15.9 °F 61% 30.10 in 10.0 mi WSW 5.8 mph - N/A   Clear
6:35 PM -6.0 °F -14.7 °F -15.9 °F 62% 30.09 in 10.0 mi SW 3.5 mph - N/A   Clear
6:55 PM -6.5 °F -19.3 °F -16.1 °F 63% 30.08 in 10.0 mi SW 5.8 mph - N/A   Scattered Clouds
7:15 PM -6.0 °F -18.6 °F -15.0 °F 65% 30.07 in 10.0 mi SW 5.8 mph - N/A   Scattered Clouds
7:35 PM -5.6 °F -21.0 °F -14.8 °F 65% 30.08 in 10.0 mi WSW 8.1 mph - N/A   Mostly Cloudy
7:55 PM -4.9 °F -20.1 °F -14.3 °F 64% 30.06 in 10.0 mi WSW 8.1 mph - N/A   Mostly Cloudy
8:15 PM -5.1 °F -20.4 °F -14.1 °F 65% 30.06 in 10.0 mi WSW 8.1 mph - N/A   Scattered Clouds
8:35 PM -5.1 °F -20.4 °F -14.1 °F 65% 30.06 in 10.0 mi West 8.1 mph - N/A   Clear
8:55 PM -5.3 °F -16.0 °F -13.9 °F 66% 30.05 in 10.0 mi WSW 4.6 mph - N/A   Clear
9:15 PM -5.1 °F -19.1 °F -13.9 °F 66% 30.04 in 10.0 mi WSW 6.9 mph - N/A   Clear
9:35 PM -4.9 °F -20.1 °F -13.5 °F 66% 30.04 in 10.0 mi WSW 8.1 mph - N/A   Clear
9:55 PM -5.3 °F -17.8 °F -13.7 °F 67% 30.03 in 10.0 mi WSW 5.8 mph - N/A   Clear
10:15 PM -5.4 °F -19.5 °F -13.9 °F 67% 30.03 in 10.0 mi WSW 6.9 mph - N/A   Scattered Clouds
10:35 PM -5.8 °F -18.4 °F -14.1 °F 67% 30.04 in 10.0 mi WSW 5.8 mph - N/A   Clear
10:55 PM -5.4 °F -16.2 °F -13.7 °F 67% 30.03 in 10.0 mi WSW 4.6 mph - N/A   Mostly Cloudy
11:15 PM -5.3 °F -16.0 °F -13.5 °F 67% 30.02 in 10.0 mi WSW 4.6 mph - N/A   Mostly Cloudy
11:35 PM -5.4 °F -14.1 °F -13.2 °F 69% 30.02 in 10.0 mi SW 3.5 mph - N/A   Scattered Clouds
11:55 PM -7.1 °F -19.9 °F -14.6 °F 70% 30.02 in 10.0 mi SSW 5.8 mph - N/A   Clear